When you browse on this site, cookies collect data to enhance your experience and personalize the content and advertising you see.
Visit our Privacy Policy to learn more. By continuing to use the site, you agree to this use of cookies and data.
  • In Hungary
  • List of Countries
  • For 7 days
  • Water Temperature
  • Weather Map
  • News
  • Weather Widgets
  • user-avatar
    Login

    Hourly Weather Cardrona

    Today, 14 November, Thursday

    Time Temperature Precipitation Wind Pressure Humidity
    00:00 +3°C° 0.1 mm 2 mps 664 mmHg 95%
    01:00 +4°C° 0.1 mm 1 mps 664 mmHg 96%
    02:00 +3°C° 0.1 mm 1 mps 663 mmHg 96%
    03:00 +3°C° 0 mm 1 mps 663 mmHg 95%
    04:00 +3°C° 0 mm 1 mps 664 mmHg 94%
    05:00 +4°C° 0 mm 1 mps 664 mmHg 94%
    06:00 +4°C° 0 mm 2 mps 664 mmHg 88%
    07:00 +5°C° 0 mm 2 mps 665 mmHg 82%
    08:00 +5°C° 0 mm 2 mps 665 mmHg 76%
    09:00 +6°C° 0.1 mm 2 mps 665 mmHg 72%
    10:00 +7°C° 0.1 mm 2 mps 665 mmHg 69%
    11:00 +8°C° 0 mm 2 mps 665 mmHg 70%
    12:00 +8°C° 0.3 mm 2 mps 665 mmHg 68%
    13:00 +9°C° 0.3 mm 2 mps 665 mmHg 67%
    14:00 +9°C° 0.3 mm 2 mps 665 mmHg 65%
    15:00 +9°C° 0.5 mm 2 mps 666 mmHg 68%
    16:00 +8°C° 0.5 mm 2 mps 666 mmHg 71%
    17:00 +8°C° 0.5 mm 2 mps 666 mmHg 73%
    18:00 +6°C° 0.3 mm 2 mps 666 mmHg 79%
    19:00 +5°C° 0.3 mm 1 mps 667 mmHg 85%
    20:00 +4°C° 0.3 mm 1 mps 667 mmHg 91%
    21:00 +3°C° 0.1 mm 1 mps 667 mmHg 91%
    22:00 +3°C° 0.1 mm 1 mps 667 mmHg 92%
    23:00 +2°C° 0.1 mm 1 mps 667 mmHg 92%

    Tomorrow, 15 November, Friday

    Time Temperature Precipitation Wind Pressure Humidity
    00:00 +2°C° 0 mm 1 mps 668 mmHg 92%
    01:00 +2°C° 0 mm 1 mps 668 mmHg 92%
    02:00 -1°C° 0 mm 2 mps 668 mmHg 92%
    03:00 +1°C° 0 mm 2 mps 668 mmHg 91%
    04:00 +1°C° 0 mm 2 mps 668 mmHg 90%
    05:00 +2°C° 0 mm 2 mps 669 mmHg 89%
    06:00 +3°C° 0 mm 2 mps 669 mmHg 82%
    07:00 +4°C° 0 mm 3 mps 670 mmHg 74%
    08:00 +5°C° 0 mm 3 mps 670 mmHg 67%
    09:00 +6°C° 0 mm 4 mps 670 mmHg 66%
    10:00 +7°C° 0 mm 4 mps 670 mmHg 65%
    11:00 +8°C° 0 mm 5 mps 671 mmHg 64%
    12:00 +8°C° 0.1 mm 5 mps 670 mmHg 67%
    13:00 +7°C° 0.1 mm 5 mps 670 mmHg 71%
    14:00 +6°C° 0.1 mm 4 mps 670 mmHg 74%
    15:00 +5°C° 0.4 mm 4 mps 669 mmHg 79%
    16:00 +5°C° 0.4 mm 4 mps 669 mmHg 84%
    17:00 +4°C° 0.4 mm 3 mps 669 mmHg 88%
    18:00 +3°C° 0.8 mm 3 mps 669 mmHg 90%
    19:00 +4°C° 0.8 mm 2 mps 669 mmHg 93%
    20:00 +3°C° 0.8 mm 2 mps 669 mmHg 95%
    21:00 +3°C° 0.6 mm 2 mps 670 mmHg 95%
    22:00 +3°C° 0.6 mm 2 mps 670 mmHg 95%
    23:00 +4°C° 0.6 mm 2 mps 670 mmHg 95%

    Day after tomorrow, 16 November, Saturday

    Time Temperature Precipitation Wind Pressure Humidity
    00:00 +4°C° 0.5 mm 2 mps 670 mmHg 95%
    01:00 +4°C° 0.5 mm 2 mps 669 mmHg 95%
    02:00 +5°C° 0.5 mm 1 mps 669 mmHg 95%
    03:00 +4°C° 1.1 mm 2 mps 669 mmHg 95%
    04:00 +4°C° 1.1 mm 2 mps 669 mmHg 96%
    05:00 +4°C° 1.1 mm 2 mps 669 mmHg 96%
    06:00 +4°C° 0.5 mm 3 mps 669 mmHg 93%
    07:00 +5°C° 0.5 mm 3 mps 669 mmHg 90%
    08:00 +7°C° 0.5 mm 3 mps 669 mmHg 87%
    09:00 +7°C° 0.9 mm 3 mps 670 mmHg 85%
    10:00 +8°C° 0.9 mm 3 mps 670 mmHg 84%
    11:00 +8°C° 0.9 mm 3 mps 670 mmHg 83%
    12:00 +8°C° 0.7 mm 3 mps 671 mmHg 79%
    13:00 +8°C° 0.7 mm 3 mps 671 mmHg 75%
    14:00 +8°C° 0.7 mm 3 mps 671 mmHg 71%
    15:00 +8°C° 0.1 mm 3 mps 671 mmHg 68%
    16:00 +8°C° 0.1 mm 3 mps 671 mmHg 66%
    17:00 +8°C° 0.1 mm 3 mps 671 mmHg 64%
    18:00 +6°C° 1.5 mm 2 mps 671 mmHg 75%
    19:00 +4°C° 1.5 mm 2 mps 671 mmHg 85%
    20:00 +3°C° 1.5 mm 1 mps 672 mmHg 96%
    21:00 +3°C° 0.9 mm 1 mps 671 mmHg 96%
    22:00 +3°C° 0.9 mm 1 mps 671 mmHg 97%
    23:00 +2°C° 0.9 mm 2 mps 671 mmHg 97%

    17 November, Sunday

    Time Temperature Precipitation Wind Pressure Humidity
    00:00 +2°C° 0.5 mm 2 mps 671 mmHg 97%
    01:00 +2°C° 0.5 mm 2 mps 671 mmHg 97%
    02:00 +3°C° 0.5 mm 1 mps 671 mmHg 97%
    03:00 +2°C° 0.4 mm 2 mps 671 mmHg 97%
    04:00 +2°C° 0.4 mm 2 mps 671 mmHg 97%
    05:00 +2°C° 0.4 mm 2 mps 671 mmHg 97%
    06:00 +3°C° 0.2 mm 2 mps 671 mmHg 94%
    07:00 +3°C° 0.2 mm 2 mps 671 mmHg 92%
    08:00 +3°C° 0.2 mm 3 mps 672 mmHg 89%
    09:00 +4°C° 0.2 mm 3 mps 672 mmHg 85%
    10:00 +5°C° 0.2 mm 3 mps 672 mmHg 80%
    11:00 +5°C° 0.2 mm 4 mps 672 mmHg 76%
    12:00 +5°C° 0.4 mm 4 mps 672 mmHg 75%
    13:00 +5°C° 0.4 mm 4 mps 672 mmHg 74%
    14:00 +5°C° 0.4 mm 5 mps 672 mmHg 72%
    15:00 +5°C° 0.1 mm 4 mps 671 mmHg 73%
    16:00 +5°C° 0.1 mm 4 mps 671 mmHg 74%
    17:00 +4°C° 0.1 mm 4 mps 671 mmHg 75%
    18:00 +3°C° 0.7 mm 3 mps 671 mmHg 82%
    19:00 +2°C° 0.7 mm 3 mps 671 mmHg 89%
    20:00 +2°C° 0.7 mm 2 mps 671 mmHg 96%
    21:00 +2°C° 0.4 mm 2 mps 671 mmHg 96%
    22:00 +2°C° 0.4 mm 2 mps 671 mmHg 96%
    23:00 +1°C° 0.4 mm 2 mps 671 mmHg 96%

    18 November, Monday

    Time Temperature Precipitation Wind Pressure Humidity
    00:00 +1°C° 0.5 mm 2 mps 671 mmHg 96%
    01:00 +1°C° 0.5 mm 2 mps 671 mmHg 96%
    02:00 +1°C° 0.5 mm 2 mps 671 mmHg 96%
    03:00 -1°C° 0.1 mm 2 mps 671 mmHg 94%
    04:00 -1°C° 0.1 mm 2 mps 671 mmHg 93%
    05:00 -1°C° 0.1 mm 2 mps 671 mmHg 91%
    06:00 +1°C° 0.1 mm 2 mps 672 mmHg 83%
    07:00 +2°C° 0.1 mm 2 mps 672 mmHg 75%
    08:00 +3°C° 0.1 mm 3 mps 673 mmHg 67%
    09:00 +3°C° 0.2 mm 3 mps 673 mmHg 64%
    10:00 +4°C° 0.2 mm 3 mps 673 mmHg 61%
    11:00 +5°C° 0.2 mm 4 mps 673 mmHg 58%
    12:00 +5°C° 0.1 mm 4 mps 674 mmHg 57%
    13:00 +5°C° 0.1 mm 4 mps 674 mmHg 56%
    14:00 +6°C° 0.1 mm 4 mps 674 mmHg 54%
    15:00 +5°C° 0.1 mm 4 mps 674 mmHg 56%
    16:00 +5°C° 0.1 mm 3 mps 674 mmHg 57%
    17:00 +4°C° 0.1 mm 3 mps 674 mmHg 58%
    18:00 +2°C° 0 mm 3 mps 675 mmHg 66%
    19:00 +2°C° 0 mm 2 mps 675 mmHg 74%
    20:00 -1°C° 0 mm 2 mps 675 mmHg 82%
    21:00 -2°C° 0 mm 2 mps 675 mmHg 84%
    22:00 -2°C° 0 mm 2 mps 675 mmHg 86%
    23:00 -3°C° 0 mm 2 mps 675 mmHg 88%

    19 November, Tuesday

    Time Temperature Precipitation Wind Pressure Humidity
    00:00 -3°C° 0 mm 2 mps 675 mmHg 88%
    01:00 -3°C° 0 mm 2 mps 674 mmHg 89%
    02:00 -3°C° 0 mm 2 mps 674 mmHg 89%
    03:00 -3°C° 0 mm 2 mps 674 mmHg 86%
    04:00 -2°C° 0 mm 2 mps 674 mmHg 82%
    05:00 -2°C° 0 mm 2 mps 674 mmHg 79%
    06:00 0°C° 0 mm 3 mps 674 mmHg 77%
    07:00 +2°C° 0 mm 3 mps 674 mmHg 74%
    08:00 +4°C° 0 mm 4 mps 674 mmHg 71%
    09:00 +5°C° 0.1 mm 4 mps 674 mmHg 70%
    10:00 +5°C° 0.1 mm 5 mps 673 mmHg 70%
    11:00 +6°C° 0.1 mm 5 mps 673 mmHg 69%
    12:00 +6°C° 0.2 mm 5 mps 672 mmHg 69%
    13:00 +7°C° 0.2 mm 5 mps 672 mmHg 68%
    14:00 +7°C° 0.2 mm 5 mps 671 mmHg 68%
    15:00 +6°C° 1.5 mm 5 mps 671 mmHg 76%
    16:00 +4°C° 1.5 mm 4 mps 670 mmHg 83%
    17:00 +3°C° 1.5 mm 4 mps 669 mmHg 91%
    18:00 +2°C° 2.6 mm 3 mps 670 mmHg 93%
    19:00 +2°C° 2.6 mm 3 mps 670 mmHg 95%
    20:00 +2°C° 2.6 mm 2 mps 670 mmHg 97%
    21:00 +2°C° 0.8 mm 2 mps 670 mmHg 97%
    22:00 +3°C° 0.8 mm 2 mps 670 mmHg 96%
    23:00 +3°C° 0.8 mm 2 mps 671 mmHg 96%
    Show more